Weather Roundup
Issued by NWS

Home | Current Version | Previous Version | Graphics & Text | Print | Product List | Glossary Off
Versions: 1 2 3 4 5 6 7 8 9 10 11 12 13 14 15 16 17 18 19 20 21 22 23 24 25 26 27 28 29 30 31 32 33 34 35 36 37 38 39 40 41 42 43 44 45 46 47 48 49 50

229
NZUS93 KARX 252059
HRRWXR

CURRENT HOURLY OBSERVATIONS ACROSS
MUCH OF THE UPPER MISSISSIPPI VALLEY
NATIONAL WEATHER SERVICE LA CROSSE WI
400 PM CDT MON JUL 25 2016


...SOUTHEAST MINNESOTA...


CITY           SKY/WX    TMP DP  RH WIND       PRES   REMARKS
ROCHESTER      SUNNY     83  65  54 NW9       30.07F
ROCHESTER/MAYO FAIR      82  60  46 W12       30.06F
WINONA         SUNNY     82  59  44 N8        30.03S
AUSTIN         SUNNY     81  63  54 N8G17     30.07S
ALBERT LEA     SUNNY     81  63  54 NW5       30.08S
DODGE CENTER   SUNNY     82  61  47 NW9       30.07F
PRESTON        SUNNY     80  60  49 NW9       30.07S
OWATONNA       SUNNY     82  63  51 NW8       30.07F
FARIBAULT      SUNNY     82  64  54 W6        30.06F
$$

...ELSEWHERE IN MINNESOTA...


CITY           SKY/WX    TMP DP  RH WIND       PRES   REMARKS
MINNEAPOLIS    MOSUNNY   86  61  42 NW7G20    30.04F
INTNL FALLS    SUNNY     82  58  43 W9G18     29.96F
DULUTH         MOSUNNY   83  59  44 NW15G23   30.01S
RED WING       SUNNY     86  57  37 NW6       30.02F
REDWOOD FALLS  SUNNY     85  64  49 SW8       30.06F
MANKATO        SUNNY     82  63  51 NW10      30.07F
WORTHINGTON    SUNNY     83  63  50 MISG      30.10F
FAIRMONT       SUNNY     84  63  48 NW8       30.07F
$$

...SOUTHWEST WISCONSIN...


CITY           SKY/WX    TMP DP  RH WIND       PRES   REMARKS
LA CROSSE      SUNNY     85  62  46 W9        30.02S
PRAIRIE DU CHI MOSUNNY   83  58  42 NW6       30.03F
BOSCOBEL       MOSUNNY   87  63  44 VRB5      30.02F
LONE ROCK      NOT AVBL
PLATTEVILLE    PTSUNNY   81  67  61 NW9       30.04F
FORT MC COY    MOSUNNY   83  62  48 NW13      30.04R
MAUSTON-NEW LI MOCLDY    81  64  55 NW9       30.01S
VIROQUA        FAIR      78  63  58 N6        30.06S
WIS DELLS      NOT AVBL
$$

...ELSEWHERE IN WISCONSIN...


CITY           SKY/WX    TMP DP  RH WIND       PRES   REMARKS
MILWAUKEE      PTSUNNY   82  64  54 SE9       29.98S
MADISON        PTSUNNY   85  64  49 N8        30.00F
GREEN BAY      SUNNY     83  64  52 NW9       29.96F
EAU CLAIRE     NOT AVBL
BLACK RVR FLS  FAIR      84  58  40 NW9       30.02F
MEDFORD        SUNNY     79  60  51 W12       30.03S
WAUSAU         SUNNY     82  57  42 NW13G20   29.99F
WIS RAPIDS     SUNNY     84  57  39 NW14      30.02S
MARSHFIELD     SUNNY     83  60  45 NW15G21   30.02F
RICE LAKE      MOSUNNY   80  62  52 W8        30.05F
$$

...NORTHEAST IOWA...


CITY           SKY/WX    TMP DP  RH WIND       PRES   REMARKS
WATERLOO       SUNNY     84  61  45 N12       30.03F
DUBUQUE        MOSUNNY   82  63  52 N10       30.04F
DECORAH        SUNNY     81  63  54 VRB3G14   30.04F
MASON CITY     SUNNY     84  62  47 N12       30.09S
CHARLES CITY   SUNNY     82  63  51 N9G15     30.07S
OELWEIN        MOSUNNY   82  66  57 N9        30.06F
$$

...ELSEWHERE IN IOWA...


CITY           SKY/WX    TMP DP  RH WIND       PRES   REMARKS
DES MOINES     MOSUNNY   88  60  38 N16       30.05F
IOWA CITY      SUNNY     85  64  49 N12G20    30.04F
FORT DODGE     SUNNY     84  63  48 CALM      30.09F
MARSHALLTOWN   SUNNY     85  61  44 N14       30.05F
CEDAR RAPIDS   MOSUNNY   82  66  58 N8        30.03F
$$

...NORTHERN ILLINOIS...


CITY           SKY/WX    TMP DP  RH WIND       PRES   REMARKS
CHICAGO-OHARE  MOSUNNY   88  61  40 NW7       29.97F
CHICAGO-MIDWAY PTSUNNY   85  63  47 E9        29.97F
MOLINE         MOSUNNY   86  66  51 N7        30.00F
ROCKFORD       MOSUNNY   85  64  49 NW8       30.01F
PEORIA         PTSUNNY   83  69  62 N6        30.00S
$$

NOTE: "FAIR" INDICATES FEW OR NO CLOUDS BELOW 12,000 FEET WITH NO
SIGNIFICANT WEATHER AND/OR OBSTRUCTIONS TO VISIBILITY. WIND
SPEEDS ARE IN MILES-PER-HOUR.




USA.gov is the U.S. government's official web portal to all federal, state and local government web resources and services.